This demonstration page uses our WeatherBlox Daily Observations layout. Learn more.

Left ArrowRight Arrow

39.01783, -85.05884

Hourly Observations for June 21, 2021

Temp ( °F °C ) Dew Point ( °F °C ) Humidity (%) Winds ( mph kmh ) Pressure ( in mb ) Visibility ( mi km ) Precip ( " mm )
12:52 am 00:52 Clear 76 24.4 68 20 77 77 SSW 9 15 29.67 1005 10 16 N/A
1:52 am 01:52 Mostly Clear 76 24.4 68 20 77 77 SSW 12 19 29.65 1004 10 16 N/A
2:52 am 02:52 Partly Cloudy 77 25 67 19.4 71 71 SSW 14 22 29.67 1005 10 16 N/A
3:52 am 03:52 Partly Cloudy 77 25 68 20 74 74 SSW 14 22 29.64 1004 10 16 N/A
4:52 am 04:52 Mostly Clear 77 25 68 20 74 74 SSW 12 19 29.64 1004 10 16 N/A
5:52 am 05:52 Partly Cloudy 75 23.9 68 20 79 79 S 10 17 29.65 1004 10 16 N/A
6:52 am 06:52 Mostly Cloudy 76 24.4 68 20 77 77 SSW 12 19 29.63 1003 10 16 N/A
7:52 am 07:52 Cloudy 77 25 69 20.6 77 77 SSW 12 19 29.64 1004 10 16 N/A
8:52 am 08:52 Mostly Cloudy 78 25.6 69 20.6 74 74 SW 12 19 29.66 1004 10 16 N/A
9:52 am 09:52 Mostly Cloudy 80 26.7 70 21.1 71 71 WSW 12 19 29.67 1005 10 16 N/A
10:52 am 10:52 Mostly Cloudy 82 27.8 70 21.1 67 67 SW 14 22 29.68 1005 10 16 N/A
11:52 am 11:52 Cloudy 82 27.8 69 20.6 65 65 SW 12 19 29.69 1005 10 16 N/A
12:52 pm 12:52 Cloudy 81 27.2 67 19.4 62 62 WSW 14 22 29.67 1005 10 16 N/A
1:52 pm 13:52 Cloudy 80 26.7 66 18.9 62 62 WNW 14 22 29.66 1004 10 16 N/A
2:52 pm 14:52 Cloudy 79 26.1 67 19.4 67 67 W 16 26 29.65 1004 10 16 N/A
3:52 pm 15:52 Cloudy 77 25 67 19.4 71 71 WNW 13 20 29.69 1005 10 16 N/A
4:52 pm 16:52 Cloudy 75 23.9 65 18.3 71 71 W 10 17 29.70 1006 10 16 N/A
5:52 pm 17:52 Cloudy with Light Rain 72 22.2 66 18.9 82 82 W 8 13 29.74 1007 10 16 0.00 0.00
6:52 pm 18:52 Cloudy 71 21.7 61 16.1 71 71 NW 14 22 29.72 1007 10 16 0.01 0.25
7:52 pm 19:52 Cloudy 69 20.6 57 13.9 66 66 NW 14 22 29.73 1007 10 16 N/A
8:52 pm 20:52 Cloudy with Light Rain 66 18.9 59 15 78 78 NW 9 15 29.78 1008 10 16 0.00 0.00
9:52 pm 21:52 Cloudy with Light Rain 65 18.3 59 15 81 81 WNW 7 11 29.82 1010 10 16 0.00 0.00
10:52 pm 22:52 Cloudy 64 17.8 60 15.6 87 87 N N/A 29.83 1010 10 16 0.01 0.25
11:52 pm 23:52 Mostly Cloudy 64 17.8 60 15.6 87 87 N N/A 29.85 1011 10 16 N/A

Powered by AerisWeather